TimeCST,TemperatureF,Dew PointF,Humidity,Sea Level PressureIn,VisibilityMPH,Wind Direction,Wind SpeedMPH,Gust SpeedMPH,PrecipitationIn,Events,Conditions,WindDirDegrees,DateUTC
12:15 AM,15.8,3.0,57,30.28,10.0,NE,4.6,-,N/A,,Clear,40,2013-12-30 06:15:00
12:35 AM,15.6,3.2,58,30.28,10.0,NE,4.6,-,N/A,,Clear,40,2013-12-30 06:35:00
12:55 AM,15.6,4.3,61,30.28,10.0,NNE,3.5,-,N/A,,Clear,30,2013-12-30 06:55:00
1:15 AM,15.6,5.9,66,30.27,10.0,Calm,Calm,-,N/A,,Clear,0,2013-12-30 07:15:00
1:35 AM,15.6,6.8,68,30.27,10.0,Calm,Calm,-,N/A,,Clear,0,2013-12-30 07:35:00
1:55 AM,15.6,7.0,69,30.28,10.0,Calm,Calm,-,N/A,,Clear,0,2013-12-30 07:55:00
2:15 AM,15.6,8.1,72,30.29,10.0,North,3.5,-,N/A,,Clear,360,2013-12-30 08:15:00
2:35 AM,15.4,7.0,69,30.30,10.0,Calm,Calm,-,N/A,,Clear,0,2013-12-30 08:35:00
2:55 AM,14.4,5.9,69,30.30,10.0,Calm,Calm,-,N/A,,Clear,0,2013-12-30 08:55:00
3:15 AM,13.1,5.5,72,30.30,10.0,NNE,3.5,-,N/A,,Clear,20,2013-12-30 09:15:00
3:35 AM,13.1,5.7,72,30.30,10.0,NNE,4.6,-,N/A,,Clear,30,2013-12-30 09:35:00
3:55 AM,13.1,5.9,73,30.30,10.0,NE,3.5,-,N/A,,Clear,40,2013-12-30 09:55:00
4:15 AM,13.1,5.9,73,30.29,10.0,NNE,3.5,-,N/A,,Clear,30,2013-12-30 10:15:00
4:35 AM,13.1,6.4,75,30.29,10.0,NNE,3.5,-,N/A,,Clear,30,2013-12-30 10:35:00
4:55 AM,13.1,7.2,77,30.30,10.0,NNE,3.5,-,N/A,,Clear,20,2013-12-30 10:55:00
5:15 AM,13.1,7.2,77,30.29,10.0,NE,4.6,-,N/A,,Clear,40,2013-12-30 11:15:00
5:35 AM,13.1,6.8,76,30.29,10.0,NE,3.5,-,N/A,,Clear,40,2013-12-30 11:35:00
5:55 AM,13.1,6.1,74,30.29,10.0,NE,4.6,-,N/A,,Clear,50,2013-12-30 11:55:00
6:15 AM,13.1,5.9,73,30.28,10.0,East,4.6,-,N/A,,Clear,80,2013-12-30 12:15:00
6:35 AM,13.1,5.9,73,30.27,10.0,ESE,5.8,-,N/A,,Clear,110,2013-12-30 12:35:00
6:55 AM,13.1,5.7,72,30.27,10.0,East,4.6,-,N/A,,Clear,80,2013-12-30 12:55:00
7:15 AM,13.1,5.9,73,30.27,10.0,ESE,4.6,-,N/A,,Clear,110,2013-12-30 13:15:00
7:35 AM,14.9,7.0,71,30.28,10.0,East,5.8,-,N/A,,Clear,80,2013-12-30 13:35:00
7:55 AM,15.6,7.7,71,30.28,10.0,East,5.8,-,N/A,,Clear,100,2013-12-30 13:55:00
8:15 AM,15.6,7.3,70,30.28,10.0,ESE,4.6,-,N/A,,Clear,110,2013-12-30 14:15:00
8:35 AM,15.6,7.5,70,30.27,10.0,ESE,8.1,-,N/A,,Clear,120,2013-12-30 14:35:00
8:55 AM,16.0,7.7,70,30.27,10.0,ESE,6.9,-,N/A,,Clear,120,2013-12-30 14:55:00
9:15 AM,17.8,8.8,68,30.31,10.0,Calm,Calm,-,N/A,,Clear,0,2013-12-30 15:15:00
9:35 AM,18.1,7.7,64,30.32,10.0,Calm,Calm,-,N/A,,Clear,0,2013-12-30 15:35:00
9:55 AM,18.1,7.5,63,30.30,10.0,South,3.5,-,N/A,,Clear,170,2013-12-30 15:55:00
10:15 AM,18.3,7.9,64,30.28,10.0,SE,8.1,-,N/A,,Clear,140,2013-12-30 16:15:00
10:35 AM,19.9,8.6,61,30.29,10.0,SSE,6.9,-,N/A,,Clear,150,2013-12-30 16:35:00
10:55 AM,20.7,9.3,62,30.28,10.0,SSE,4.6,-,N/A,,Clear,160,2013-12-30 16:55:00
11:15 AM,20.7,9.0,61,30.29,10.0,Calm,Calm,-,N/A,,Clear,0,2013-12-30 17:15:00
11:35 AM,21.2,8.8,59,30.28,10.0,South,3.5,-,N/A,,Clear,170,2013-12-30 17:35:00
11:55 AM,21.9,9.7,59,30.27,10.0,South,3.5,-,N/A,,Clear,170,2013-12-30 17:55:00
12:15 PM,23.2,9.9,57,30.26,10.0,South,5.8,-,N/A,,Clear,180,2013-12-30 18:15:00
12:35 PM,25.2,11.3,56,30.24,10.0,SSW,3.5,-,N/A,,Clear,200,2013-12-30 18:35:00
12:55 PM,27.0,12.2,54,30.24,10.0,SW,4.6,-,N/A,,Clear,220,2013-12-30 18:55:00
1:15 PM,28.8,13.3,52,30.23,10.0,WNW,3.5,-,N/A,,Clear,290,2013-12-30 19:15:00
1:35 PM,30.7,15.1,52,30.22,10.0,West,8.1,-,N/A,,Scattered Clouds,260,2013-12-30 19:35:00
1:55 PM,30.7,15.4,53,30.22,10.0,West,6.9,-,N/A,,Scattered Clouds,260,2013-12-30 19:55:00
2:15 PM,30.7,16.2,55,30.22,10.0,West,6.9,-,N/A,,Scattered Clouds,260,2013-12-30 20:15:00
2:55 PM,30.9,15.3,52,30.22,10.0,WSW,6.9,-,N/A,,Scattered Clouds,240,2013-12-30 20:55:00
3:15 PM,30.9,15.8,54,30.22,10.0,WSW,5.8,-,N/A,,Scattered Clouds,240,2013-12-30 21:15:00
3:35 PM,31.8,16.7,54,30.22,10.0,WSW,8.1,-,N/A,,Clear,250,2013-12-30 21:35:00
3:55 PM,32.7,17.6,54,30.22,10.0,SW,5.8,-,N/A,,Clear,230,2013-12-30 21:55:00
4:15 PM,32.9,18.1,55,30.23,10.0,SW,8.1,-,N/A,,Clear,220,2013-12-30 22:15:00
4:35 PM,32.5,18.0,55,30.22,10.0,SW,8.1,-,N/A,,Clear,230,2013-12-30 22:35:00
4:55 PM,31.8,18.0,57,30.23,10.0,SW,4.6,-,N/A,,Clear,230,2013-12-30 22:55:00
5:15 PM,30.7,18.5,60,30.23,10.0,SW,4.6,-,N/A,,Clear,220,2013-12-30 23:15:00
5:35 PM,30.7,19.9,64,30.24,10.0,West,4.6,-,N/A,,Clear,260,2013-12-30 23:35:00
5:55 PM,30.7,19.4,63,30.26,10.0,WNW,4.6,-,N/A,,Clear,290,2013-12-30 23:55:00
6:15 PM,30.7,18.9,61,30.26,10.0,West,3.5,-,N/A,,Clear,270,2013-12-31 00:15:00
6:35 PM,29.3,19.2,66,30.26,10.0,SW,5.8,-,N/A,,Clear,230,2013-12-31 00:35:00
6:55 PM,28.2,19.8,71,30.26,10.0,SW,5.8,-,N/A,,Clear,230,2013-12-31 00:55:00
7:15 PM,28.6,19.9,70,30.27,10.0,WSW,5.8,-,N/A,,Clear,240,2013-12-31 01:15:00
7:35 PM,28.6,19.8,70,30.28,10.0,SW,5.8,-,N/A,,Clear,230,2013-12-31 01:35:00
7:55 PM,28.8,19.4,68,30.27,10.0,SW,6.9,-,N/A,,Clear,230,2013-12-31 01:55:00
8:15 PM,30.4,20.3,66,30.28,10.0,SW,6.9,-,N/A,,Clear,230,2013-12-31 02:15:00
8:35 PM,29.7,19.9,67,30.29,10.0,SW,6.9,-,N/A,,Clear,230,2013-12-31 02:35:00
8:55 PM,28.4,19.0,68,30.28,10.0,SW,9.2,-,N/A,,Clear,230,2013-12-31 02:55:00
9:15 PM,28.4,19.2,69,30.29,10.0,SW,8.1,-,N/A,,Clear,220,2013-12-31 03:15:00
9:35 PM,28.6,19.4,69,30.29,10.0,WSW,6.9,-,N/A,,Clear,240,2013-12-31 03:35:00
9:55 PM,28.2,19.6,70,30.29,10.0,WSW,4.6,-,N/A,,Clear,240,2013-12-31 03:55:00
10:15 PM,28.2,19.8,71,30.30,10.0,SW,8.1,-,N/A,,Clear,220,2013-12-31 04:15:00
10:35 PM,28.2,19.8,71,30.31,10.0,WSW,5.8,-,N/A,,Clear,250,2013-12-31 04:35:00
10:55 PM,28.2,19.0,68,30.32,10.0,WSW,6.9,-,N/A,,Clear,240,2013-12-31 04:55:00
11:15 PM,28.2,18.7,67,30.32,10.0,West,4.6,-,N/A,,Clear,260,2013-12-31 05:15:00
11:35 PM,28.2,18.9,68,30.33,10.0,WSW,5.8,-,N/A,,Clear,250,2013-12-31 05:35:00
11:55 PM,28.4,18.1,65,30.34,10.0,WSW,6.9,-,N/A,,Clear,250,2013-12-31 05:55:00